GFSFLT1_sfc_temp_021.txt.gz
Temp
75 68 65 70 74 78 80 84 81 82 85 84 84 86 87 91 85 86 84 84 82 78 78 78 78 78 77 77 77 77 77 78
67 65 69 71 78 78 81 83 82 83 82 85 89 88 91 89 86 85 86 85 82 78 78 78 78 78 77 77 77 77 77 77
64 65 70 75 79 79 79 80 84 83 81 82 88 89 88 87 86 86 86 86 85 78 78 78 78 78 77 77 77 77 77 77
63 67 73 77 81 79 79 81 83 80 80 85 88 87 89 87 86 89 85 83 84 79 77 77 78 78 77 77 77 77 77 77
64 66 69 75 81 79 81 80 81 84 80 87 89 90 87 87 87 86 85 82 82 83 80 77 77 77 77 76 76 76 76 76
66 67 70 78 80 83 82 80 86 86 80 82 91 85 85 86 86 85 84 84 82 82 84 82 82 77 77 76 76 76 76 75
66 67 74 78 78 81 85 82 84 87 87 89 85 81 83 82 83 84 82 82 82 83 82 82 83 82 77 77 77 76 76 75
76 77 75 76 77 78 78 79 80 84 88 88 85 85 84 82 84 82 82 82 82 80 80 81 82 80 81 81 82 80 79 78
77 78 77 77 77 81 77 75 82 80 83 87 88 84 82 87 88 87 85 84 80 77 78 79 80 80 80 80 79 77 76 75
77 79 77 75 79 75 77 78 84 85 85 85 85 84 84 84 86 85 85 82 79 77 75 77 79 78 78 77 77 76 76 74
76 77 77 77 73 73 75 82 86 86 84 83 85 85 84 84 86 86 82 80 76 76 75 74 73 77 76 75 76 77 76 75
76 75 76 72 73 75 77 82 82 82 83 85 85 86 86 81 79 80 79 77 76 75 74 74 74 73 74 74 76 76 75 75
70 72 71 75 68 70 79 82 79 80 82 84 85 87 83 84 78 79 79 75 73 74 73 72 73 74 74 75 75 74 75 72
72 72 73 71 63 77 81 79 78 79 80 81 83 85 86 84 80 80 76 72 73 76 73 72 73 74 75 74 74 73 73 73
64 71 71 69 67 77 79 76 75 77 79 81 82 83 83 82 81 74 72 72 72 72 73 73 72 74 73 72 73 73 73 73
60 69 71 69 67 74 75 76 75 77 79 79 79 81 84 80 76 72 72 72 71 71 72 72 73 71 73 72 73 74 73 74
65 70 67 67 67 70 74 76 75 75 76 77 77 82 77 73 72 71 71 70 70 70 70 71 72 73 72 72 73 73 73 72
65 68 66 66 65 70 72 73 75 76 76 77 78 79 71 68 69 69 69 70 70 71 69 71 73 72 75 74 74 73 73 71
59 65 66 63 61 66 73 74 76 77 78 77 77 77 69 67 68 70 69 69 70 70 70 71 72 72 71 71 71 72 72 72
60 57 53 64 51 63 68 69 73 76 77 78 78 72 69 68 67 68 69 72 71 71 70 71 71 71 70 71 70 71 71 71

GFSFLT1_sfc_temp_024.txt.gz
Temp
84 79 75 80 85 87 88 91 91 90 94 92 90 96 100 102 99 99 97 94 90 79 78 79 78 78 77 77 77 77 78 78
77 76 82 83 88 88 88 91 93 92 88 95 99 97 101 100 100 99 99 97 89 78 78 78 78 78 77 77 77 77 78 78
77 79 84 87 90 90 88 89 91 92 88 90 98 100 99 98 99 99 99 99 97 78 78 78 79 78 77 77 77 77 78 78
75 80 84 88 92 91 90 91 91 90 89 92 99 99 100 100 99 101 99 96 96 80 78 78 78 78 77 77 77 77 77 77
79 79 80 86 93 90 90 91 89 93 86 94 98 100 99 100 100 99 99 96 94 91 82 77 77 77 77 77 77 76 76 76
80 77 78 87 90 92 90 89 94 93 86 88 98 98 99 100 101 100 98 98 94 91 91 87 86 77 77 77 76 76 76 76
78 79 81 88 87 90 92 90 93 94 93 97 99 98 99 98 99 100 98 97 96 95 93 90 90 87 78 77 77 76 77 76
86 87 86 89 86 88 85 86 88 92 97 97 97 98 96 97 97 96 96 97 96 92 91 91 93 89 85 87 87 86 85 84
87 89 90 87 86 92 86 82 88 88 92 96 96 95 96 97 98 98 100 98 96 89 88 89 91 90 89 89 88 87 84 83
86 89 87 83 88 85 87 87 92 93 94 94 93 95 97 98 99 99 99 98 96 91 85 85 91 89 89 89 87 86 85 81
86 85 86 86 83 84 86 90 93 93 93 93 93 95 97 98 98 97 96 97 95 90 84 84 84 88 87 86 86 86 85 83
85 85 86 82 83 85 86 88 89 90 91 94 94 95 96 95 95 95 94 94 93 88 84 84 83 83 83 83 86 84 85 84
81 83 82 85 77 78 88 88 87 89 91 93 94 96 94 95 93 94 94 92 89 85 84 82 82 82 82 85 84 85 85 81
79 80 81 80 70 83 90 89 87 88 90 90 91 94 95 95 95 95 92 89 86 86 84 81 81 82 84 85 84 84 84 83
72 83 80 78 72 83 90 87 85 86 87 89 90 92 94 95 95 93 90 87 82 83 83 80 77 82 82 81 82 84 83 83
70 79 77 75 74 82 87 86 84 85 87 88 89 90 94 94 91 90 86 82 81 82 81 79 81 81 83 83 83 84 83 82
74 80 76 73 74 80 85 84 82 84 86 87 87 93 94 88 84 82 81 79 79 79 77 80 80 81 81 80 82 83 83 81
74 78 75 73 72 79 82 83 83 84 85 87 88 90 91 84 80 79 78 78 77 77 76 79 82 82 83 82 84 84 84 80
67 73 75 70 67 71 79 83 85 86 87 87 88 88 89 80 78 79 77 77 77 77 77 79 80 80 79 80 80 80 80 80
66 64 58 71 57 68 75 77 81 83 85 87 90 90 86 80 78 78 78 79 78 77 77 78 78 79 77 80 79 82 80 82

GFSFLT1_sfc_temp_030.txt.gz
Temp
78 74 70 76 87 87 89 89 96 94 99 95 91 99 99 102 103 100 90 85 82 78 78 78 78 78 77 77 77 77 78 78
70 69 81 83 88 91 83 92 97 96 91 99 102 101 103 105 105 101 96 91 83 78 78 78 78 78 77 77 77 77 78 78
74 77 84 90 94 93 90 92 95 97 90 90 99 103 105 103 104 101 99 95 84 78 78 78 78 78 77 77 77 77 77 78
70 77 87 92 97 95 94 94 93 93 92 92 102 101 103 104 101 104 99 94 84 79 78 78 78 78 77 77 77 77 77 77
75 78 83 90 97 92 92 93 93 97 88 95 97 101 102 103 102 101 102 96 84 81 79 78 77 77 77 77 76 76 76 77
76 76 78 90 94 96 94 92 100 98 86 88 96 102 103 104 105 102 102 101 86 82 83 80 79 77 77 77 76 76 76 76
73 77 81 91 89 97 99 94 97 97 96 99 103 105 103 101 102 104 103 98 93 88 84 82 82 80 77 77 77 76 76 76
83 85 85 90 90 92 90 90 91 93 99 102 103 101 98 97 97 99 100 101 98 92 86 84 88 82 77 78 78 76 77 76
84 88 90 88 89 93 88 86 89 88 94 99 99 97 96 98 99 99 100 99 97 87 85 86 87 85 80 80 78 78 77 76
85 88 88 86 90 87 89 90 96 97 98 98 96 95 96 96 97 99 98 95 95 89 84 84 87 87 81 82 80 79 79 78
87 88 88 90 87 87 88 94 98 98 97 95 95 95 95 96 97 96 93 94 93 90 84 82 81 85 83 82 82 81 81 79
87 87 89 86 87 88 90 94 94 94 94 96 96 96 94 94 92 92 92 91 92 90 82 83 82 80 80 81 83 82 80 79
84 86 85 88 80 82 90 93 91 92 93 95 95 97 94 94 90 92 92 89 88 88 82 81 81 80 82 82 82 80 79 79
80 83 85 83 71 84 91 90 88 91 92 93 94 96 96 94 91 92 90 88 88 93 83 81 80 81 81 81 80 80 78 78
72 83 82 81 73 84 90 88 86 88 89 91 92 94 92 94 92 90 88 88 88 87 83 81 80 81 81 81 79 78 78 78
68 78 81 77 77 83 88 88 86 88 89 89 90 91 92 92 92 91 90 88 88 85 82 80 80 79 79 79 78 78 78 78
74 81 77 75 76 80 86 87 86 86 87 86 88 93 93 92 90 87 86 86 84 81 80 79 79 78 75 76 76 77 78 79
74 79 77 76 75 81 84 85 86 86 86 86 87 89 91 90 89 83 81 81 80 79 79 78 78 77 78 77 78 78 78 78
67 74 77 74 70 75 83 85 87 88 88 88 86 86 87 89 83 81 79 78 78 78 77 78 77 77 77 77 78 76 77 76
69 66 60 74 58 70 77 79 83 85 86 86 87 88 88 88 80 79 79 79 78 77 76 78 77 77 75 73 73 75 75 74

GFSFLT1_sfc_temp_033.txt.gz
Temp
63 60 57 59 74 77 83 88 87 86 93 87 82 89 88 89 85 81 77 76 76 78 78 78 78 77 77 77 77 77 77 78
60 59 68 72 78 84 78 88 89 89 83 89 90 91 91 89 85 81 78 78 78 78 78 78 78 77 77 77 77 77 77 77
59 64 73 80 83 83 82 85 86 91 80 81 89 93 94 90 88 82 79 79 78 78 78 78 78 78 77 77 77 77 77 77
55 66 76 82 86 85 85 86 86 87 86 80 90 91 91 93 89 87 82 80 77 78 77 77 78 77 77 76 76 77 77 77
61 66 73 81 88 84 82 84 85 88 80 79 86 90 91 91 91 88 86 81 77 77 77 77 77 77 76 76 76 76 76 76
61 64 67 82 86 83 86 86 95 93 80 76 84 91 91 89 87 88 86 81 77 76 77 75 75 77 76 76 76 76 76 76
62 66 71 83 81 91 93 89 89 90 88 89 92 90 84 83 85 83 86 80 78 76 75 75 75 76 76 77 76 76 76 76
73 75 75 81 83 85 85 84 84 86 91 93 93 87 84 81 80 80 82 79 79 77 75 75 78 75 73 74 74 73 72 71
74 78 81 80 81 87 82 79 82 82 87 93 91 87 81 81 82 83 86 81 80 79 77 76 78 75 73 73 72 71 70 69
76 80 79 78 84 81 82 80 87 89 90 89 87 82 84 83 84 84 84 83 82 81 78 77 79 76 73 73 72 71 71 69
79 80 80 82 80 80 81 88 90 91 91 84 84 83 83 85 84 84 81 82 81 77 79 79 78 77 74 74 73 73 72 72
77 77 79 78 79 81 83 88 87 88 85 84 84 84 82 81 82 80 80 82 82 77 78 80 79 77 76 76 75 74 74 73
74 77 75 80 73 76 84 85 84 84 86 87 84 85 83 82 80 80 81 83 80 77 73 77 79 74 77 77 76 76 75 74
69 74 77 76 64 76 82 81 79 84 86 84 82 82 85 83 79 80 79 80 78 81 74 73 75 72 74 75 72 73 71 72
62 74 74 72 66 77 82 81 80 82 84 84 84 81 80 82 83 82 80 78 77 73 72 71 71 71 72 72 71 70 70 68
58 68 71 69 68 76 80 80 79 81 82 82 83 79 82 81 82 80 77 75 75 72 71 71 71 71 70 70 70 70 70 66
63 70 68 67 68 73 77 74 75 74 74 75 75 80 80 81 79 74 74 74 73 70 70 73 73 70 67 66 68 71 69 71
64 70 68 67 66 73 76 76 78 79 78 74 73 77 80 77 76 73 71 70 70 69 70 69 71 68 69 68 69 69 69 70
56 64 68 65 60 65 72 75 78 76 75 75 75 74 77 79 70 69 69 68 69 69 69 69 70 69 68 67 66 66 65 66
61 57 50 62 48 61 68 70 74 78 73 75 75 75 75 75 68 68 68 69 69 69 69 70 70 68 66 64 63 65 66 66